This is the latest recevied weather packets stored in our database for station/object KC3AWA. If no packets are shown the sender has not sent any weather packets the latest 10 day(s).
| Time | Temp. | Humidity | Pressure | Rain* | Wind** | Luminosity | Snow |
|---|---|---|---|---|---|---|---|
| 1778013044 | 19.44° C | 58% | 1008.3 hPa | 0 mm | - | 115 W/m² | - |
| 1778012739 | 19.44° C | 56% | 1008.3 hPa | 0 mm | - | 122 W/m² | - |
| 1778012435 | 19.44° C | 58% | 1008.6 hPa | 0 mm | - | 94 W/m² | - |
| 1778012133 | 19.44° C | 56% | 1008.5 hPa | 0 mm | - | 103 W/m² | - |
| 1778011830 | 20° C | 55% | 1008.2 hPa | 0 mm | - | 108 W/m² | - |
| 1778011528 | 20° C | 55% | 1008.5 hPa | 0 mm | - | 116 W/m² | - |
| 1778011225 | 20° C | 55% | 1008.3 hPa | 0 mm | - | 134 W/m² | - |
| 1778010920 | 19.44° C | 56% | 1008.3 hPa | 0 mm | - | 97 W/m² | - |
| 1778010618 | 19.44° C | 56% | 1008.5 hPa | 0 mm | - | 53 W/m² | - |
| 1778010315 | 20° C | 56% | 1008.4 hPa | 0 mm | - | 28 W/m² | - |
| 1778010010 | 20° C | 56% | 1008.4 hPa | 0 mm | - | 30 W/m² | - |
| 1778009708 | 20° C | 56% | 1008.5 hPa | 0 mm | - | 97 W/m² | - |
| 1778009405 | 20.56° C | 55% | 1008.8 hPa | 0 mm | - | 95 W/m² | - |
| 1778009104 | 20.56° C | 54% | 1008.8 hPa | 0 mm | - | 65 W/m² | - |
| 1778008801 | 20.56° C | 53% | 1008.5 hPa | 0 mm | - | 95 W/m² | - |
| 1778008499 | 21.11° C | 53% | 1008.8 hPa | 0 mm | - | 153 W/m² | - |
| 1778008196 | 21.11° C | 52% | 1008.5 hPa | 0 mm | - | 210 W/m² | - |
| 1778007891 | 20.56° C | 54% | 1008.6 hPa | 0 mm | - | 404 W/m² | - |
| 1778007586 | 20.56° C | 54% | 1008.5 hPa | 0 mm | - | 460 W/m² | - |
| 1778007284 | 20° C | 57% | 1008.6 hPa | 0 mm | - | 366 W/m² | - |
| 1778006980 | 20° C | 56% | 1008.6 hPa | 0 mm | - | 127 W/m² | - |
| 1778006677 | 20° C | 56% | 1008.6 hPa | 0 mm | - | 75 W/m² | - |
| 1778006374 | 20.56° C | 54% | 1008.8 hPa | 0 mm | - | 123 W/m² | - |
| 1778006071 | 20.56° C | 55% | 1008.8 hPa | 0 mm | - | 137 W/m² | - |
| 1778005767 | 20.56° C | 55% | 1008.6 hPa | 0 mm | - | 153 W/m² | - |
* Rain latest hour (hover to see other rain measurements)
** Current wind speed in m/s (hover to see current wind gust speed)